Strona główna
METAR-TAF:

METAR-TAF

Lotnisko :

Newark-Heath Airport

Newark, Ohio, Stany Zjednoczone

Szerokość geograficzna: 40-01-22N, Długość geograficzna: 082-27-45W, wysokość: 269 m

Aktualna obserwacja pogody

Raport powstał 34 minut temu, godzina 19:54 UTC
Cisza
Temperatura 5°C
Wilgotność 45%
Ciśnienie 1029 hPa
Widzialność: 16.1 km
bezchmurnie

METAR: KVTA 071954Z AUTO 00000KT 10SM CLR 05/M06 A3038 RMK AO2 SLP298 T00501056

czas: 15:28 (20:28 UTC)


TAF: brakujący

Obserwacja i prognoza pogody dla ponad 4000 lotnisk (raport METAR i TAF).

Dostępne stacje oznaczono żółtymi i czerwonymi punktami na mapie.

Najedź kursorem aby zobaczyć nazwę stacji.

Kliknij aby zobaczyć obserwacje i prognozy pogody.

Aby zmienić mapę: kliknij na zielony przycisk z czarnym krzyżykiem, aby powiększyć; na zielony przycisk z myślnikiem, aby pomniejszyć; na zielone strzałki, aby przejść do map sąsiednich.


METAR-TAF: